Accueil
METAR-TAF:

METAR-TAF

Aéroports :

Durant, Oklahoma, États-Unis

latitude: 33-56-32N, longitude: 096-23-40W, altitude: 213 m

Observation

Le bulletin a été fait il y a 23 minutes, à 21:15 UTC
Vent 8 kt de sud/sud-ouest
Température -8°C
Humidité 31%
Pression 1014 hPa
Nuages épars à une hauteur de 7000 ft

METAR: KDUA 162115Z AUTO 20008KT SCT070 M08/M22 A2995 RMK AO2 PWINO

Heure: 16:38 (21:38 UTC)


TAF: absent

Observations et prévisions météorologiques de plus de 4000 aéroports (messages METAR et TAF).

Les stations disponibles sont représentées par des disques jaunes et rouges sur la carte.

Passer la souris dessus pour voir le nom de la station.

Cliquer dessus pour voir les observations et prévisions météorologiques.

Pour changer de carte: cliquez sur les boutons verts avec une croix noire pour zoomer, sur le bouton vert avec un tiret pour effectuer un zoom arrière, ou sur les flèches vertes pour les cartes adjacentes.


METAR-TAF: